Hazen, ND

5:55 AM CST on November 23, 2017 (GMT -0600)
Mercer County Regional

Weather History for KHZE - February, 2014

Change the Weather History Date:

Monday, February 17, 2014

  Actual Average (KN60) Record (KN60)
Temperature  
Mean Temperature 32 °F -  
Max Temperature 42 °F 24 °F 47 °F (2017)
Min Temperature 21 °F 7 °F -22 °F (2006)
Degree Days  
Heating Degree Days 34    
Moisture  
Dew Point 22 °F    
Average Humidity 69    
Maximum Humidity 93    
Minimum Humidity 46    
Precipitation  
Precipitation 0.00 in - - ()
Sea Level Pressure  
Sea Level Pressure 29.62 in    
Wind  
Wind Speed 11 mph (SW)    
Max Wind Speed 18 mph    
Max Gust Speed 23 mph    
Visibility 10 miles    
Events      
Averages and records for this station are not official NWS values.
T = Trace of Precipitation, MM = Missing Value Source: NWS Daily Summary

Daily Weather History Graph

Daily Weather History Graph

Search for Another Location

Airport or City:

Trip Planner

Search our weather history database for the weather conditions in past years. The results will help you decide how hot, cold, wet, or windy it might be!

Date:

Astronomy

Feb. 17, 2014 Rise Set
Actual Time 7:47 AM CST 6:13 PM CST
Civil Twilight 7:16 AM CST 6:44 PM CST
Nautical Twilight 6:40 AM CST 7:20 PM CST
Astronomical Twilight 6:05 AM CST 7:56 PM CST
Moon 9:25 PM CST (2/17) 8:36 AM CST (2/17)
Length of Visible Light 11h 28m
Length of Day
10h 25m
Waning Gibbous, 93% of the Moon is Illuminated
Feb 17
Waning Gibbous
Feb 22
Last Quarter
Mar 1
New
Mar 8
First Quarter
Mar 16
Full

Hourly Weather History & Observations

Time (CST) Temp. Windchill Dew Point Humidity Pressure Visibility Wind Dir Wind Speed Gust Speed Precip Events Conditions
12:15 AM 24.8 °F 16.1 °F 23.0 °F 93% 29.64 in 9.0 mi West 8.1 mph - N/A   Overcast
12:35 AM 24.8 °F 16.1 °F 23.0 °F 93% 29.65 in 8.0 mi West 8.1 mph - N/A   Mostly Cloudy
12:55 AM 24.8 °F 15.3 °F 23.0 °F 93% 29.65 in 9.0 mi WSW 9.2 mph - N/A   Partly Cloudy
1:15 AM 30.2 °F 20.8 °F 26.6 °F 86% 29.65 in 10.0 mi West 11.5 mph - N/A   Clear
1:35 AM 30.2 °F 20.8 °F 26.6 °F 86% 29.65 in 10.0 mi WSW 11.5 mph - N/A   Clear
1:55 AM 32.0 °F 23.6 °F 28.4 °F 87% 29.66 in 10.0 mi West 10.4 mph - N/A   Clear
2:15 AM 32.0 °F 22.5 °F 26.6 °F 80% 29.66 in 10.0 mi West 12.7 mph - N/A   Clear
2:35 AM 32.0 °F 22.5 °F 26.6 °F 80% 29.66 in 10.0 mi West 12.7 mph - N/A   Partly Cloudy
2:55 AM 32.0 °F 22.1 °F 24.8 °F 75% 29.66 in 10.0 mi West 13.8 mph - N/A   Partly Cloudy
3:15 AM 32.0 °F 23.0 °F 23.0 °F 69% 29.67 in 10.0 mi West 11.5 mph - N/A   Clear
3:35 AM 30.2 °F 19.3 °F 23.0 °F 75% 29.66 in 10.0 mi West 15.0 mph - N/A   Clear
3:55 AM 28.4 °F 19.1 °F 19.4 °F 69% 29.66 in 10.0 mi West 10.4 mph - N/A   Clear
4:15 AM 24.8 °F 14.6 °F 17.6 °F 74% 29.67 in 10.0 mi West 10.4 mph - N/A   Clear
4:35 AM 26.6 °F 17.5 °F 17.6 °F 69% 29.67 in 10.0 mi West 9.2 mph - N/A   Clear
4:55 AM 24.8 °F 15.3 °F 15.8 °F 69% 29.68 in 10.0 mi WSW 9.2 mph - N/A   Clear
5:15 AM 23.0 °F 13.9 °F 15.8 °F 74% 29.69 in 10.0 mi West 8.1 mph - N/A   Partly Cloudy
5:35 AM 26.6 °F 15.2 °F 17.6 °F 69% 29.69 in 10.0 mi West 13.8 mph - N/A   Clear
5:55 AM 23.0 °F 12.4 °F 15.8 °F 74% 29.70 in 10.0 mi WSW 10.4 mph - N/A   Partly Cloudy
6:15 AM 23.0 °F 11.7 °F 15.8 °F 74% 29.71 in 10.0 mi WSW 11.5 mph - N/A   Partly Cloudy
6:35 AM 21.2 °F 12.6 °F 14.0 °F 74% 29.71 in 10.0 mi WSW 6.9 mph - N/A   Partly Cloudy
6:55 AM 21.2 °F 10.9 °F 14.0 °F 74% 29.71 in 10.0 mi SW 9.2 mph - N/A   Scattered Clouds
7:15 AM 21.2 °F 8.9 °F 14.0 °F 74% 29.72 in 10.0 mi SW 12.7 mph - N/A   Mostly Cloudy
7:35 AM 23.0 °F 10.1 °F 14.0 °F 68% 29.72 in 10.0 mi WSW 15.0 mph - N/A   Partly Cloudy
7:55 AM 21.2 °F 8.3 °F 14.0 °F 74% 29.73 in 10.0 mi WSW 13.8 mph - N/A   Clear
8:15 AM 21.2 °F 10.1 °F 14.0 °F 74% 29.73 in 10.0 mi WSW 10.4 mph - N/A   Clear
8:35 AM 21.2 °F 10.1 °F 14.0 °F 74% 29.74 in 10.0 mi WSW 10.4 mph - N/A   Clear
8:55 AM 23.0 °F 12.4 °F 15.8 °F 74% 29.75 in 10.0 mi WSW 10.4 mph - N/A   Clear
9:15 AM 24.8 °F 14.0 °F 15.8 °F 69% 29.74 in 10.0 mi WSW 11.5 mph - N/A   Clear
9:35 AM 24.8 °F 13.4 °F 15.8 °F 69% 29.74 in 10.0 mi WSW 12.7 mph - N/A   Clear
9:55 AM 24.8 °F 14.6 °F 17.6 °F 74% 29.74 in 10.0 mi WSW 10.4 mph - N/A   Clear
10:15 AM 28.4 °F 20.4 °F 19.4 °F 69% 29.73 in 10.0 mi WSW 8.1 mph - N/A   Clear
10:35 AM 28.4 °F 22.2 °F 19.4 °F 69% 29.73 in 10.0 mi WSW 5.8 mph - N/A   Clear
10:55 AM 30.2 °F 19.8 °F 19.4 °F 64% 29.73 in 10.0 mi WSW 13.8 mph - N/A   Clear
11:15 AM 32.0 °F 23.0 °F 19.4 °F 60% 29.72 in 10.0 mi WSW 11.5 mph - N/A   Clear
11:35 AM 32.0 °F 22.5 °F 21.2 °F 64% 29.71 in 10.0 mi WSW 12.7 mph - N/A   Clear
11:55 AM 35.6 °F 28.0 °F 23.0 °F 60% 29.70 in 10.0 mi WSW 10.4 mph - N/A   Clear
12:15 PM 35.6 °F 27.5 °F 23.0 °F 60% 29.68 in 10.0 mi SW 11.5 mph 17.3 mph N/A   Clear
12:35 PM 37.4 °F 32.1 °F 23.0 °F 56% 29.67 in 10.0 mi WSW 6.9 mph - N/A   Clear
12:55 PM 39.2 °F 33.6 °F 23.0 °F 52% 29.65 in 10.0 mi SW 8.1 mph - N/A   Clear
1:15 PM 39.2 °F 33.0 °F 23.0 °F 52% 29.63 in 10.0 mi SW 9.2 mph - N/A   Clear
1:35 PM 41.0 °F 33.9 °F 23.0 °F 49% 29.61 in 10.0 mi SW 12.7 mph - N/A   Clear
1:55 PM 41.0 °F 33.5 °F 23.0 °F 49% 29.61 in 10.0 mi SSW 13.8 mph - N/A   Clear
2:15 PM 41.0 °F 33.9 °F 23.0 °F 49% 29.61 in 10.0 mi SW 12.7 mph - N/A   Clear
2:35 PM 41.0 °F 32.8 °F 24.8 °F 53% 29.60 in 10.0 mi SW 16.1 mph - N/A   Clear
2:55 PM 42.8 °F 35.8 °F 23.0 °F 46% 29.59 in 10.0 mi SW 13.8 mph - N/A   Clear
3:15 PM 41.0 °F 34.3 °F 24.8 °F 53% 29.58 in 10.0 mi SW 11.5 mph - N/A   Clear
3:35 PM 41.0 °F 33.5 °F 24.8 °F 53% 29.57 in 10.0 mi SW 13.8 mph - N/A   Clear
3:55 PM 41.0 °F 32.8 °F 24.8 °F 53% 29.55 in 10.0 mi SW 16.1 mph 21.9 mph N/A   Clear
4:15 PM 41.0 °F 32.8 °F 26.6 °F 57% 29.54 in 10.0 mi SSW 16.1 mph 19.6 mph N/A   Clear
4:35 PM 41.0 °F 32.2 °F 26.6 °F 57% 29.54 in 10.0 mi SSW 18.4 mph 23.0 mph N/A   Clear
4:55 PM 41.0 °F 32.8 °F 26.6 °F 57% 29.52 in 10.0 mi SSW 16.1 mph - N/A   Clear
5:15 PM 41.0 °F 33.5 °F 26.6 °F 57% 29.52 in 10.0 mi SSW 13.8 mph - N/A   Clear
5:35 PM 39.2 °F 31.2 °F 28.4 °F 65% 29.53 in 10.0 mi SSW 13.8 mph - N/A   Clear
5:55 PM 39.2 °F 30.2 °F 28.4 °F 65% 29.52 in 10.0 mi SSW 17.3 mph - N/A   Clear
6:15 PM 37.4 °F 29.3 °F 28.4 °F 70% 29.52 in 10.0 mi South 12.7 mph - N/A   Clear
6:35 PM 35.6 °F 27.5 °F 28.4 °F 75% 29.52 in 10.0 mi SSW 11.5 mph - N/A   Clear
6:55 PM 35.6 °F 26.6 °F 28.4 °F 75% 29.52 in 10.0 mi SSW 13.8 mph - N/A   Clear
7:15 PM 35.6 °F 26.6 °F 28.4 °F 75% 29.51 in 10.0 mi SSW 13.8 mph - N/A   Partly Cloudy
7:35 PM 35.6 °F 26.6 °F 28.4 °F 75% 29.51 in 10.0 mi SSW 13.8 mph - N/A   Partly Cloudy
7:55 PM 37.4 °F 28.9 °F 28.4 °F 70% 29.50 in 10.0 mi SSW 13.8 mph 21.9 mph N/A   Partly Cloudy
8:15 PM 35.6 °F 27.1 °F 26.6 °F 70% 29.50 in 10.0 mi SSW 12.7 mph - N/A   Partly Cloudy
8:35 PM 35.6 °F 28.0 °F 26.6 °F 70% 29.50 in 10.0 mi SW 10.4 mph - N/A   Partly Cloudy
8:55 PM 35.6 °F 27.5 °F 26.6 °F 70% 29.49 in 10.0 mi SSW 11.5 mph - N/A   Partly Cloudy
9:15 PM 35.6 °F 27.1 °F 26.6 °F 70% 29.48 in 10.0 mi SW 12.7 mph 18.4 mph N/A   Partly Cloudy
9:35 PM 35.6 °F 27.1 °F 24.8 °F 65% 29.48 in 10.0 mi SSW 12.7 mph - N/A   Partly Cloudy
9:55 PM 32.0 °F 25.6 °F 24.8 °F 75% 29.48 in 10.0 mi WSW 6.9 mph - N/A   Partly Cloudy
10:15 PM 30.2 °F 23.4 °F 23.0 °F 75% 29.48 in 10.0 mi SW 6.9 mph - N/A   Clear
10:35 PM 30.2 °F 23.4 °F 23.0 °F 75% 29.48 in 10.0 mi WSW 6.9 mph - N/A   Clear
10:55 PM 28.4 °F 22.2 °F 23.0 °F 80% 29.48 in 10.0 mi WSW 5.8 mph - N/A   Clear
11:15 PM 28.4 °F 23.3 °F 23.0 °F 80% 29.47 in 10.0 mi SW 4.6 mph - N/A   Clear
11:35 PM 28.4 °F 22.2 °F 23.0 °F 80% 29.48 in 10.0 mi SW 5.8 mph - N/A   Clear
11:55 PM 28.4 °F 22.2 °F 23.0 °F 80% 29.48 in 10.0 mi WSW 5.8 mph - N/A   Scattered Clouds